Regional Weather Roundup
Issued by NWS

Home | Current Version | Previous Version | Text Only | Print | Product List | Glossary On
Versions: 1 2 3 4 5 6 7 8 9 10 11 12 13 14 15 16 17 18 19 20 21 22 23 24 25 26 27 28 29 30 31 32 33 34 35 36 37 38 39 40 41 42 43 44 45 46 47 48 49 50
000
ASHW40 PHFO 262232
RWRHI

WEATHER ROUNDUP FOR HAWAII
NATIONAL WEATHER SERVICE HONOLULU HI
1200 PM HST SUN MAR 26 2017

THIS IS AN AUTOMATED REPORT THAT HAS NOT BEEN QUALITY CONTROLLED.

NOTE..."FAIR" INDICATES FEW OR NO CLOUDS BELOW 12,000 FEET WITH NO
SIGNIFICANT WEATHER AND/OR OBSTRUCTIONS TO VISIBILITY.

* - THESE SITES REPORT LIMITED FIELDS

HIZ001>004-262300-
KAUAI-NIIHAU-

CITY           SKY/WX    TMP DP  RH WIND       PRES   REMARKS
LIHUE APT      SUNNY     78  66  66 NE13      30.23F
PORT ALLEN*      N/A     82 N/A N/A E17G23      N/A
POIPU*           N/A     81 N/A N/A NE10G18     N/A
PRINCEVILLE*     N/A     79 N/A N/A E12G23      N/A
KOKOLE POINT*  NOT AVBL
MOLOAA DAIRY*    N/A     81  68  65 E12G21      N/A
WAIMEA HTS*    NOT AVBL
PUU OPAE*      NOT AVBL
PUU LUA*       NOT AVBL
MAKAHA RIDGE*    N/A     73  63  68 NW3         N/A
$$

HIZ005>011-262300-
OAHU-

CITY           SKY/WX    TMP DP  RH WIND       PRES   REMARKS
HONOLULU       PTSUNNY   83  65  54 NE15G24   30.18F
KALAELOA       PTSUNNY   86  65  49 VRB6      30.19F
KANEOHE MCB    NOT AVBL
WHEELER FIELD  FAIR      79  66  65 E14G22    30.20
BELLOWS*         N/A    N/A N/A N/A E20G25      N/A
KAHUKU*          N/A    N/A N/A N/A NE12G20     N/A
WHEELER*       NOT AVBL
WAIANAE HARBOR NOT AVBL
DILLINGHAM*      N/A     88  70  55 SW10G18     N/A  HX  92
KAHUKU TRN*      N/A     82  73  74 W12G26      N/A
KAWAILOA*        N/A     73  64  73 E12G21      N/A
KII*             N/A     79  68  69 E17G24      N/A
MAKUA RANGE*     N/A     66  45  45 NW12G26     N/A
OAHU FOREST NW NOT AVBL
SCHOFIELD BRK*   N/A     79  64  61 MISG        N/A
SCHOFIELD S*   NOT AVBL
WAIANAE VLY*   NOT AVBL
KUAOKALA*      NOT AVBL
HONOULIUULI*   NOT AVBL
MOKUOLOE IS*   NOT AVBL
PALEHUA*       NOT AVBL
WAIAWA PHB*    NOT AVBL
$$

HIZ012>013-262300-
MOLOKAI-

CITY           SKY/WX    TMP DP  RH WIND       PRES   REMARKS
MOLOKAI AIRPT  MOSUNNY   82  67  60 NE18G31   30.18F
KALAUPAPA      NOT AVBL
MAKAPULAPAI*     N/A     82  68  61 E20G28      N/A
MOLOKAI 1*     NOT AVBL
PUU ALII*        N/A     67  59  75 VRB3G17     N/A
$$

HIZ016-262300-
KAHOOLAWE-

CITY           SKY/WX    TMP DP  RH WIND       PRES   REMARKS
KAHOOLAWE*     NOT AVBL
HAKIOAWA*        N/A     78  65  63 MISG      30.54F
HONOKANAIA*      N/A     84  64  50 NE20G40   30.11S
KANELOA*         N/A     77  64  65 E26G44    30.24S
KEALIALALO*    NOT AVBL
LUA MAKIKA*    NOT AVBL
$$

HIZ014>015-262300-
LANAI-

CITY           SKY/WX    TMP DP  RH WIND       PRES   REMARKS
LANAI CITY     CLOUDY    75  63  64 W10G16    30.20F
LANAI 1*       NOT AVBL
$$

HIZ017>028-262300-
MAUI-

CITY           SKY/WX    TMP DP  RH WIND       PRES   REMARKS
KAHULUI        MOSUNNY   85  64  49 NE23G33   30.14F
KAPALUA-W MAUI MOSUNNY   79  63  57 E14G25    30.19
HANA AIRPORT   SUNNY     82  66  57 E10       30.22F
HANA*            N/A     81 N/A N/A E9G17       N/A
HALEAKALA SUMM   N/A     46  16  29 E31G47      N/A
MAALAEA BAY*     N/A     86 N/A N/A N16G29      N/A
HALEAKALA*     NOT AVBL
KAUPO GAP*     NOT AVBL
KULA 1*          N/A     65  53  65 W5G10       N/A
$$

HIZ023>026-262300-
BIG ISLAND OF HAWAII COAST AND LOWER SLOPES-

CITY           SKY/WX    TMP DP  RH WIND       PRES   REMARKS
KAILUA KONA    MOSUNNY   82  66  58 SW9       30.12F
HILO           PTSUNNY   81  64  56 SE7       30.21F
HONOKAA*         N/A     75 N/A N/A VRB1        N/A
KAWAIHAE MWT*    N/A     81 N/A N/A W9          N/A
KAWAIHAE*        N/A     79 N/A N/A W9        30.13F
SOUTH POINT*     N/A     77 N/A N/A N28G40      N/A
UPOLU AIRPORT* NOT AVBL
KAMUELA*       CLEAR     77  61  57 NE9G24    30.22S
HAKALAU*         N/A     66  41  40 SE6G13      N/A
KALOKO-HONOKO*   N/A     84  66  54 SW9       30.12F
PALI 2*          N/A     75  57  53 SW18G30     N/A
KEALAKOMO*       N/A     84  63  48 E20G28      N/A
KAUPULEHU*     NOT AVBL
KAPAPALA*        N/A     80  60  50 E12G28      N/A
LOWER KAHUKU*    N/A     66  59  77 E5G17       N/A
PUHE CS*         N/A     82  64  54 W9G18       N/A
PUHO CS*         N/A     84  66  53 W3G9        N/A
PTA KEAMUKU*     N/A     75  59  57 CALM        N/A
WAIKOLOA*      NOT AVBL
$$

HIZ027>028-262300-
BIG ISLAND OF HAWAII INTERIOR AND SUMMMITS-

CITY           SKY/WX    TMP DP  RH WIND       PRES   REMARKS
BRADSHAW FIELD SUNNY     70  32  24 S18G31    30.42F
MK VISITOR CEN   N/A     54  25  32 SE17G29     N/A
MAUNA KEA*       N/A     41  -6  13 E3          N/A
MAUNA LOA*       N/A     55  -4   8 MISG        N/A
MAUNA LOA 1*   NOT AVBL
PTA KIPUKA*      N/A    N/A N/A N/A E18G26      N/A
PTA RANGE 17*    N/A     75  34  22 E21G35      N/A
PTA WEST*        N/A     72  54  53 NW15G26     N/A
NENE CABIN*      N/A     57  46  67 E9G20       N/A
AHUMOA*        NOT AVBL
PTA PORTABLE*  NOT AVBL
PUU MALI*        N/A    N/A N/A N/A E16G30      N/A
$$

HIC003-262300-
NORTHWEST ISLANDS-

CITY           SKY/WX    TMP DP  RH WIND       PRES   REMARKS
MIDWAY ISLAND  CLOUDY    72  68  88 W8        30.12S
MIDWAY NOS*      N/A     73 N/A N/A MISG      30.11R
FRENCH FRIGATE NOT AVBL
$$

PHZ110>124-180-262300-
BUOY REPORTS

STATION/POSITION TIME  TEMP    WIND        PRES    WAVE   SWELL
                       AIR SEA DIR/SP/G            HT/PER HT/DIR
                 (UTC) (F)     (DEG/KT/KT) (MB)    (FT/S) (FT/D)
BUOY 51001       2210   75 76  130/ 16/ 21 1022.6
BUOY 51101       2150   76 76  120/ 16/ 21 1023.1F  12/15  11/280
BUOY 51100       NOT AVBL
BUOY 51002       2210   78 78   70/ 21/ 27 1018.9
BUOY 51003       2150   77 78   80/ 14/ 19 1020.8F  11/16  10/270
BUOY 51004       2150      77   70/ 19/ 23 1020.1F  10/10   8/ 90
BARBERS PT BUOY  NOT AVBL
WAIMEA BAY BUOY  2202      75                N/A     8/15   7/310
KAILUA BAY BUOY  2204      76                N/A     7/ 7   2/110
LANAI BUOY       2215      79                N/A     5/17   5/270
BARBERS PT 2     NOT AVBL
PAUWELA MAUI     2209      76                N/A     7/15   3/320
HILO             2212      78                N/A     8/10   3/110
KANEOHE BAY BUOY 2155      76                N/A     5/ 6   2/340
HANALEI KAUAI    2152      77                N/A     9/17   8/320
KAHULUI HARBOR   2200   78 77   50/ 25/ 30 1021.1
HONOLULU HARBOR  2200   81 78   90/  7/ 15 1022.5
KILO NALU        NOT AVBL
HILO HARBOR      2200   87 76  100/  7/ 11 1022.5
MOKUOLOE         2136   79 79  100/ 15/ 22 1023.0F
NAWILIWILI       2200   77      70/ 12/ 14 1023.0
WHOTS BUOY       NOT AVBL
BUOY 51028       NOT AVBL
$$

......................KEY........................................
  SKY/WX - SKY CONDITIONS/PRESENT WEATHER
  TMP    - TEMPERATURE IN FAHRENHEIT
  DWPT   - DEWPOINT IN FAHRENHEIT
  RH     - RELATIVE HUMIDITY IN PERCENT
  WIND   - DIRECTION AND SPEED /MPH FOR ISLANDS...KTS FOR BUOYS/
  PRES   - MEAN SEA LEVEL PRESSURE IN INCHES OF HG
  VSB    - VISIBILITY IN MILES
  HX     - HEAT INDEX
  WCI    - WIND CHILL INDEX
  VRB    - VARIABLE WIND DIRECTION
  N/A    - NOT AVAILABLE



USA.gov is the U.S. government's official web portal to all federal, state and local government web resources and services.